Time,TemperatureF,DewpointF,PressureIn,WindDirection,WindDirectionDegrees,WindSpeedMPH,WindSpeedGustMPH,Humidity,HourlyPrecipIn,Conditions,Clouds,dailyrainin,SoftwareType,DateUTC
2013-07-28 00:02:00,73.0,68.0,29.97,East,79,0.0,0.0,84,0.00,,,0.00,,2013-07-28 05:02:00,
2013-07-28 00:12:00,73.0,68.0,29.97,East,79,0.0,0.0,84,0.00,,,0.00,,2013-07-28 05:12:00,
2013-07-28 00:22:00,73.0,68.0,29.97,SE,131,0.0,0.0,84,0.00,,,0.00,,2013-07-28 05:22:00,
2013-07-28 00:32:00,73.0,68.0,29.97,SE,131,0.0,0.0,84,0.00,,,0.00,,2013-07-28 05:32:00,
2013-07-28 00:43:00,73.0,68.0,29.97,SE,131,0.0,0.0,84,0.00,,,0.00,,2013-07-28 05:43:00,
2013-07-28 00:52:00,73.0,68.0,29.97,SE,131,0.0,0.0,84,0.00,,,0.00,,2013-07-28 05:52:00,
2013-07-28 01:02:00,72.0,67.0,29.97,ENE,74,0.0,0.0,84,0.00,,,0.00,,2013-07-28 06:02:00,
2013-07-28 01:12:00,72.0,67.0,29.97,ENE,74,0.0,0.0,84,0.00,,,0.00,,2013-07-28 06:12:00,
2013-07-28 01:22:00,71.0,66.0,29.97,ENE,74,0.0,0.0,85,0.00,,,0.00,,2013-07-28 06:22:00,
2013-07-28 01:32:00,71.0,66.0,29.98,SE,131,0.0,0.0,85,0.00,,,0.00,,2013-07-28 06:32:00,
2013-07-28 01:43:00,71.0,66.0,29.97,SE,131,0.0,0.0,84,0.00,,,0.00,,2013-07-28 06:43:00,
2013-07-28 01:52:00,71.0,66.0,29.98,SE,131,0.0,0.0,84,0.00,,,0.00,,2013-07-28 06:52:00,
2013-07-28 02:02:00,70.0,65.0,29.97,SE,131,0.0,0.0,85,0.00,,,0.00,,2013-07-28 07:02:00,
2013-07-28 02:12:00,70.0,65.0,29.97,SE,131,0.0,0.0,85,0.00,,,0.00,,2013-07-28 07:12:00,
2013-07-28 02:22:00,70.0,66.0,29.97,SE,131,0.0,0.0,86,0.00,,,0.00,,2013-07-28 07:22:00,
2013-07-28 02:32:00,69.0,65.0,29.98,SE,131,0.0,0.0,87,0.00,,,0.00,,2013-07-28 07:32:00,
2013-07-28 02:53:00,69.0,65.0,29.98,SE,131,0.0,0.0,87,0.00,,,0.00,,2013-07-28 07:53:00,
2013-07-28 03:02:00,69.0,65.0,29.98,SE,131,0.0,0.0,87,0.00,,,0.00,,2013-07-28 08:02:00,
2013-07-28 03:12:00,69.0,65.0,29.98,SE,131,0.0,0.0,88,0.00,,,0.00,,2013-07-28 08:12:00,
2013-07-28 03:22:00,69.0,65.0,29.98,SE,131,0.0,0.0,88,0.00,,,0.00,,2013-07-28 08:22:00,
2013-07-28 03:33:00,69.0,65.0,29.98,SE,129,0.0,0.0,88,0.00,,,0.00,,2013-07-28 08:33:00,
2013-07-28 03:42:00,69.0,65.0,29.98,ENE,68,0.0,0.0,87,0.00,,,0.00,,2013-07-28 08:42:00,
2013-07-28 03:53:00,69.0,65.0,29.98,ENE,68,0.0,0.0,87,0.00,,,0.00,,2013-07-28 08:53:00,
2013-07-28 04:02:00,69.0,65.0,29.98,ENE,68,0.0,0.0,87,0.00,,,0.00,,2013-07-28 09:02:00,
2013-07-28 04:12:00,68.0,64.0,29.99,ENE,68,0.0,0.0,87,0.00,,,0.00,,2013-07-28 09:12:00,
2013-07-28 04:22:00,68.0,64.0,29.99,ENE,77,0.0,0.0,87,0.00,,,0.00,,2013-07-28 09:22:00,
2013-07-28 04:32:00,68.0,64.0,30.00,ENE,77,0.0,0.0,87,0.00,,,0.00,,2013-07-28 09:32:00,
2013-07-28 04:43:00,68.0,64.0,29.99,ENE,77,0.0,0.0,88,0.00,,,0.00,,2013-07-28 09:43:00,
2013-07-28 04:53:00,68.0,64.0,29.99,ENE,75,0.0,0.0,87,0.00,,,0.00,,2013-07-28 09:53:00,
2013-07-28 05:02:00,68.0,64.0,29.99,ENE,77,0.0,0.0,87,0.00,,,0.00,,2013-07-28 10:02:00,
2013-07-28 05:12:00,68.0,64.0,29.99,ENE,78,0.0,0.0,86,0.00,,,0.00,,2013-07-28 10:12:00,
2013-07-28 05:22:00,67.0,63.0,29.98,East,80,0.0,0.0,87,0.00,,,0.00,,2013-07-28 10:22:00,
2013-07-28 05:33:00,67.0,63.0,29.98,ENE,72,0.0,0.0,87,0.00,,,0.00,,2013-07-28 10:33:00,
2013-07-28 05:42:00,67.0,63.0,29.99,ENE,66,0.0,0.0,86,0.00,,,0.00,,2013-07-28 10:42:00,
2013-07-28 05:52:00,67.0,63.0,29.98,ENE,70,0.0,0.0,86,0.00,,,0.00,,2013-07-28 10:52:00,
2013-07-28 06:12:00,67.0,63.0,30.00,ENE,70,0.0,0.0,86,0.00,,,0.00,,2013-07-28 11:12:00,
2013-07-28 06:22:00,67.0,63.0,30.01,ENE,60,0.0,0.0,86,0.00,,,0.00,,2013-07-28 11:22:00,
2013-07-28 06:33:00,67.0,63.0,30.01,ENE,70,0.0,0.0,86,0.00,,,0.00,,2013-07-28 11:33:00,
2013-07-28 06:43:00,67.0,63.0,30.01,East,79,0.0,0.0,86,0.00,,,0.00,,2013-07-28 11:43:00,
2013-07-28 07:02:00,67.0,62.0,30.02,ENE,61,0.0,0.0,85,0.00,,,0.00,,2013-07-28 12:02:00,
2013-07-28 07:12:00,67.0,62.0,30.03,ENE,72,0.0,0.0,85,0.00,,,0.00,,2013-07-28 12:12:00,
2013-07-28 07:22:00,67.0,62.0,30.03,ENE,65,0.0,0.0,85,0.00,,,0.00,,2013-07-28 12:22:00,
2013-07-28 07:33:00,67.0,62.0,30.03,ESE,102,0.0,0.0,84,0.00,,,0.00,,2013-07-28 12:33:00,
2013-07-28 07:43:00,67.0,62.0,30.03,East,83,0.0,0.0,83,0.00,,,0.00,,2013-07-28 12:43:00,
2013-07-28 07:53:00,68.0,62.0,30.03,ENE,68,0.0,1.0,80,0.00,,,0.00,,2013-07-28 12:53:00,
2013-07-28 08:12:00,70.0,62.0,30.05,ESE,106,0.0,0.0,77,0.00,,,0.00,,2013-07-28 13:12:00,
2013-07-28 08:22:00,70.0,62.0,30.05,East,82,0.0,0.0,76,0.00,,,0.00,,2013-07-28 13:22:00,
2013-07-28 08:32:00,70.0,62.0,30.05,ENE,66,0.0,0.0,75,0.00,,,0.00,,2013-07-28 13:32:00,
2013-07-28 08:43:00,70.0,62.0,30.05,East,99,0.0,0.0,75,0.00,,,0.00,,2013-07-28 13:43:00,
2013-07-28 08:52:00,70.0,62.0,30.06,ENE,74,0.0,0.0,77,0.00,,,0.00,,2013-07-28 13:52:00,
2013-07-28 09:02:00,69.0,61.0,30.06,ENE,75,0.0,0.0,77,0.00,,,0.00,,2013-07-28 14:02:00,
2013-07-28 09:12:00,69.0,61.0,30.06,East,98,0.0,0.0,76,0.00,,,0.00,,2013-07-28 14:12:00,
2013-07-28 09:23:00,69.0,61.0,30.06,ENE,68,0.0,0.0,77,0.00,,,0.00,,2013-07-28 14:23:00,
2013-07-28 09:33:00,70.0,62.0,30.06,ENE,63,0.0,0.0,77,0.00,,,0.00,,2013-07-28 14:33:00,
2013-07-28 09:53:00,70.0,62.0,30.06,ENE,72,0.0,0.0,77,0.00,,,0.00,,2013-07-28 14:53:00,
2013-07-28 10:03:00,70.0,62.0,30.06,East,82,0.0,0.0,77,0.00,,,0.00,,2013-07-28 15:03:00,
2013-07-28 10:13:00,70.0,62.0,30.05,ENE,63,0.0,0.0,76,0.00,,,0.00,,2013-07-28 15:13:00,
2013-07-28 10:22:00,71.0,63.0,30.06,East,79,0.0,0.0,77,0.00,,,0.00,,2013-07-28 15:22:00,
2013-07-28 10:32:00,71.0,63.0,30.06,ENE,67,0.0,0.0,76,0.00,,,0.00,,2013-07-28 15:32:00,
2013-07-28 10:43:00,72.0,63.0,30.06,ENE,59,0.0,0.0,74,0.00,,,0.00,,2013-07-28 15:43:00,
2013-07-28 10:53:00,72.0,63.0,30.06,ENE,67,0.0,0.0,74,0.00,,,0.00,,2013-07-28 15:53:00,
2013-07-28 11:02:00,73.0,63.0,30.06,East,98,0.0,0.0,70,0.00,,,0.00,,2013-07-28 16:02:00,
2013-07-28 11:12:00,72.0,62.0,30.07,ENE,60,0.0,0.0,71,0.00,,,0.00,,2013-07-28 16:12:00,
2013-07-28 11:22:00,73.0,63.0,30.07,East,94,0.0,0.0,71,0.00,,,0.00,,2013-07-28 16:22:00,
2013-07-28 11:33:00,73.0,63.0,30.06,ENE,72,0.0,0.0,71,0.00,,,0.00,,2013-07-28 16:33:00,
2013-07-28 11:43:00,72.0,63.0,30.07,ENE,70,0.0,0.0,74,0.00,,,0.00,,2013-07-28 16:43:00,
2013-07-28 12:02:00,74.0,63.0,30.06,ENE,75,0.0,0.0,68,0.00,,,0.00,,2013-07-28 17:02:00,
2013-07-28 12:12:00,75.0,63.0,30.07,NE,36,0.0,0.0,67,0.00,,,0.00,,2013-07-28 17:12:00,
2013-07-28 12:23:00,75.0,64.0,30.06,ENE,67,0.0,0.0,68,0.00,,,0.00,,2013-07-28 17:23:00,
2013-07-28 12:32:00,77.0,65.0,30.06,East,91,0.0,0.0,67,0.00,,,0.00,,2013-07-28 17:32:00,
2013-07-28 13:03:00,79.0,64.0,30.06,East,87,2.0,4.0,61,0.00,,,0.00,,2013-07-28 18:03:00,
2013-07-28 13:22:00,79.0,64.0,30.05,SE,136,0.0,5.0,61,0.00,,,0.00,,2013-07-28 18:22:00,
2013-07-28 13:33:00,80.0,63.0,30.05,ENE,75,2.0,6.0,57,0.00,,,0.00,,2013-07-28 18:33:00,
2013-07-28 13:43:00,80.0,63.0,30.05,ENE,71,4.0,6.0,57,0.00,,,0.00,,2013-07-28 18:43:00,
2013-07-28 13:52:00,80.0,64.0,30.05,East,84,0.0,4.0,59,0.00,,,0.00,,2013-07-28 18:52:00,
2013-07-28 14:02:00,82.0,64.0,30.05,East,90,1.0,3.0,55,0.00,,,0.00,,2013-07-28 19:02:00,
2013-07-28 14:12:00,81.0,63.0,30.05,NE,51,3.0,5.0,55,0.00,,,0.00,,2013-07-28 19:12:00,
2013-07-28 14:22:00,83.0,65.0,30.05,SW,229,0.0,1.0,55,0.00,,,0.00,,2013-07-28 19:22:00,
2013-07-28 14:33:00,83.0,64.0,30.04,East,84,1.0,1.0,53,0.00,,,0.00,,2013-07-28 19:33:00,
2013-07-28 14:52:00,82.0,64.0,30.03,ENE,70,2.0,4.0,54,0.00,,,0.00,,2013-07-28 19:52:00,
2013-07-28 15:02:00,82.0,65.0,30.03,ENE,60,0.0,3.0,57,0.00,,,0.00,,2013-07-28 20:02:00,
2013-07-28 15:23:00,82.0,64.0,30.03,ENE,65,2.0,5.0,55,0.00,,,0.00,,2013-07-28 20:23:00,
2013-07-28 15:33:00,82.0,65.0,30.03,ENE,63,1.0,3.0,56,0.00,,,0.00,,2013-07-28 20:33:00,
2013-07-28 15:52:00,80.0,65.0,30.04,ESE,121,0.0,0.0,60,0.00,,,0.00,,2013-07-28 20:52:00,
2013-07-28 16:03:00,80.0,64.0,30.04,East,79,0.0,0.0,59,0.00,,,0.00,,2013-07-28 21:03:00,
2013-07-28 16:12:00,80.0,65.0,30.04,ENE,59,0.0,0.0,61,0.00,,,0.00,,2013-07-28 21:12:00,
2013-07-28 16:22:00,79.0,65.0,30.03,East,89,0.0,0.0,62,0.00,,,0.00,,2013-07-28 21:22:00,
2013-07-28 16:33:00,80.0,66.0,30.03,NE,56,0.0,0.0,62,0.00,,,0.00,,2013-07-28 21:33:00,
2013-07-28 16:44:00,79.0,64.0,30.03,ENE,72,0.0,0.0,60,0.00,,,0.00,,2013-07-28 21:44:00,
2013-07-28 16:52:00,79.0,65.0,30.03,East,89,0.0,0.0,63,0.00,,,0.00,,2013-07-28 21:52:00,
2013-07-28 17:02:00,79.0,65.0,30.03,ENE,72,0.0,0.0,63,0.00,,,0.00,,2013-07-28 22:02:00,
2013-07-28 17:12:00,79.0,65.0,30.03,ENE,70,0.0,0.0,63,0.00,,,0.00,,2013-07-28 22:12:00,
2013-07-28 17:22:00,79.0,65.0,30.03,ENE,65,0.0,0.0,63,0.00,,,0.00,,2013-07-28 22:22:00,
2013-07-28 17:32:00,79.0,66.0,30.03,ENE,77,0.0,0.0,65,0.00,,,0.00,,2013-07-28 22:32:00,
2013-07-28 17:43:00,79.0,65.0,30.03,East,101,0.0,0.0,63,0.00,,,0.00,,2013-07-28 22:43:00,
2013-07-28 17:52:00,79.0,65.0,30.04,East,89,0.0,0.0,63,0.00,,,0.00,,2013-07-28 22:52:00,
2013-07-28 18:03:00,78.0,65.0,30.04,ENE,63,0.0,0.0,64,0.00,,,0.00,,2013-07-28 23:03:00,
2013-07-28 18:12:00,78.0,65.0,30.03,East,100,0.0,0.0,65,0.00,,,0.00,,2013-07-28 23:12:00,
2013-07-28 18:22:00,77.0,65.0,30.04,East,84,0.0,0.0,67,0.00,,,0.00,,2013-07-28 23:22:00,
2013-07-28 18:32:00,78.0,66.0,30.04,East,80,0.0,0.0,67,0.00,,,0.00,,2013-07-28 23:32:00,
2013-07-28 18:43:00,77.0,66.0,30.04,ENE,73,0.0,0.0,68,0.00,,,0.00,,2013-07-28 23:43:00,
2013-07-28 18:53:00,77.0,65.0,30.05,ESE,106,0.0,0.0,67,0.00,,,0.00,,2013-07-28 23:53:00,
2013-07-28 19:03:00,77.0,66.0,30.05,ESE,110,0.0,0.0,68,0.00,,,0.00,,2013-07-29 00:03:00,
2013-07-28 19:22:00,76.0,65.0,30.05,ENE,75,0.0,0.0,68,0.00,,,0.00,,2013-07-29 00:22:00,
2013-07-28 19:32:00,76.0,65.0,30.06,East,84,0.0,0.0,70,0.00,,,0.00,,2013-07-29 00:32:00,
2013-07-28 19:52:00,75.0,65.0,30.06,ENE,69,0.0,0.0,71,0.00,,,0.00,,2013-07-29 00:52:00,
2013-07-28 20:02:00,75.0,65.0,30.06,ENE,70,0.0,0.0,72,0.00,,,0.00,,2013-07-29 01:02:00,
2013-07-28 20:13:00,74.0,65.0,30.06,ENE,69,0.0,0.0,73,0.00,,,0.00,,2013-07-29 01:13:00,
2013-07-28 20:27:00,74.0,65.0,30.06,ENE,70,0.0,0.0,73,0.00,,,0.00,,2013-07-29 01:27:00,
2013-07-28 20:35:00,73.0,65.0,30.06,ENE,70,0.0,0.0,76,0.00,,,0.00,,2013-07-29 01:35:00,
2013-07-28 21:05:00,72.0,66.0,30.05,ENE,70,0.0,0.0,81,0.00,,,0.00,,2013-07-29 02:05:00,
2013-07-28 21:14:00,72.0,66.0,30.06,ENE,70,0.0,0.0,81,0.00,,,0.00,,2013-07-29 02:14:00,
2013-07-28 21:25:00,72.0,65.0,30.07,ENE,69,0.0,0.0,80,0.00,,,0.00,,2013-07-29 02:25:00,
2013-07-28 21:36:00,72.0,66.0,30.07,ENE,70,0.0,0.0,81,0.00,,,0.00,,2013-07-29 02:36:00,
2013-07-28 21:56:00,71.0,65.0,30.08,ENE,69,0.0,0.0,82,0.00,,,0.00,,2013-07-29 02:56:00,
2013-07-28 22:03:00,71.0,65.0,30.08,ENE,70,0.0,0.0,82,0.00,,,0.00,,2013-07-29 03:03:00,
2013-07-28 22:24:00,70.0,65.0,30.08,ENE,69,0.0,0.0,85,0.00,,,0.00,,2013-07-29 03:24:00,
2013-07-28 23:02:00,68.0,64.0,30.08,ENE,70,0.0,0.0,87,0.00,,,0.00,,2013-07-29 04:02:00,
2013-07-28 23:12:00,68.0,64.0,30.09,ENE,70,0.0,0.0,88,0.00,,,0.00,,2013-07-29 04:12:00,
2013-07-28 23:22:00,68.0,64.0,30.09,ENE,69,0.0,0.0,88,0.00,,,0.00,,2013-07-29 04:22:00,
2013-07-28 23:32:00,68.0,64.0,30.08,ENE,70,0.0,0.0,88,0.00,,,0.00,,2013-07-29 04:32:00,
2013-07-28 23:53:00,67.0,64.0,30.08,ENE,69,0.0,0.0,89,0.00,,,0.00,,2013-07-29 04:53:00,